When you browse on this site, cookies collect data to enhance your experience and personalize the content and advertising you see.
Visit our Privacy Policy to learn more. By continuing to use the site, you agree to this use of cookies and data.
  • In United Kingdom
  • List of Countries
  • For 7 days
  • Water Temperature
  • Satellite Maps
  • Weather Map
  • Weather Widgets
  • user-avatar
    Login

    Hourly Weather Swansea

    Today, 19 January, Saturday

    Time Temperature Precipitation Wind Pressure Humidity
    00:00 +5°C° 0.1 mm 4 mps 753 mmHg 93%
    01:00 +5°C° 0 mm 4 mps 752 mmHg 93%
    02:00 +5°C° 0 mm 4 mps 752 mmHg 93%
    03:00 +5°C° 0 mm 5 mps 752 mmHg 94%
    04:00 +6°C° 0.4 mm 5 mps 752 mmHg 94%
    05:00 +6°C° 0.4 mm 5 mps 751 mmHg 94%
    06:00 +6°C° 0.4 mm 5 mps 751 mmHg 94%
    07:00 +6°C° 0.2 mm 4 mps 751 mmHg 94%
    08:00 +6°C° 0.2 mm 4 mps 751 mmHg 94%
    09:00 +6°C° 0.2 mm 4 mps 752 mmHg 94%
    10:00 +8°C° 0.2 mm 3 mps 752 mmHg 92%
    11:00 +8°C° 0.2 mm 3 mps 752 mmHg 90%
    12:00 +9°C° 0.2 mm 3 mps 752 mmHg 88%
    13:00 +9°C° 0.1 mm 2 mps 752 mmHg 88%
    14:00 +9°C° 0.1 mm 2 mps 752 mmHg 88%
    15:00 +10°C° 0.1 mm 1 mps 751 mmHg 87%
    16:00 +9°C° 0.1 mm 1 mps 752 mmHg 89%
    17:00 +8°C° 0.1 mm 1 mps 752 mmHg 91%
    18:00 +7°C° 0.1 mm 1 mps 752 mmHg 92%
    19:00 +6°C° 0 mm 2 mps 753 mmHg 93%
    20:00 +6°C° 0 mm 2 mps 753 mmHg 94%
    21:00 +5°C° 0 mm 2 mps 754 mmHg 95%
    22:00 +5°C° 0 mm 2 mps 754 mmHg 95%
    23:00 +5°C° 0 mm 2 mps 755 mmHg 95%

    Tomorrow, 20 January, Sunday

    Time Temperature Precipitation Wind Pressure Humidity
    00:00 +5°C° 0 mm 2 mps 755 mmHg 95%
    01:00 +5°C° 0 mm 2 mps 756 mmHg 95%
    02:00 +6°C° 0 mm 2 mps 756 mmHg 95%
    03:00 +6°C° 0 mm 2 mps 757 mmHg 95%
    04:00 +6°C° 0 mm 2 mps 757 mmHg 94%
    05:00 +6°C° 0 mm 2 mps 758 mmHg 94%
    06:00 +7°C° 0 mm 1 mps 758 mmHg 93%
    07:00 +7°C° 0 mm 1 mps 759 mmHg 93%
    08:00 +7°C° 0 mm 1 mps 760 mmHg 93%
    09:00 +7°C° 0 mm 1 mps 760 mmHg 92%
    10:00 +6°C° 0.1 mm 2 mps 761 mmHg 91%
    11:00 +7°C° 0.1 mm 2 mps 762 mmHg 89%
    12:00 +7°C° 0.1 mm 3 mps 762 mmHg 88%
    13:00 +7°C° 0 mm 3 mps 763 mmHg 86%
    14:00 +7°C° 0 mm 3 mps 763 mmHg 85%
    15:00 +7°C° 0 mm 3 mps 763 mmHg 83%
    16:00 +5°C° 0 mm 3 mps 764 mmHg 86%
    17:00 +4°C° 0 mm 3 mps 765 mmHg 88%
    18:00 +3°C° 0 mm 3 mps 766 mmHg 91%
    19:00 +3°C° 0 mm 3 mps 766 mmHg 92%
    20:00 +4°C° 0 mm 2 mps 767 mmHg 92%
    21:00 +4°C° 0 mm 2 mps 767 mmHg 93%
    22:00 +4°C° 0 mm 2 mps 768 mmHg 93%
    23:00 +4°C° 0 mm 2 mps 768 mmHg 93%

    Day after tomorrow, 21 January, Monday

    Time Temperature Precipitation Wind Pressure Humidity
    00:00 +3°C° 0 mm 2 mps 768 mmHg 92%
    01:00 +3°C° 0 mm 2 mps 768 mmHg 92%
    02:00 +3°C° 0 mm 2 mps 768 mmHg 91%
    03:00 +3°C° 0 mm 2 mps 768 mmHg 91%
    04:00 +3°C° 0 mm 2 mps 768 mmHg 90%
    05:00 +3°C° 0 mm 1 mps 768 mmHg 90%
    06:00 +3°C° 0 mm 1 mps 768 mmHg 89%
    07:00 +3°C° 0 mm 1 mps 768 mmHg 89%
    08:00 +3°C° 0 mm 1 mps 768 mmHg 89%
    09:00 +3°C° 0 mm 1 mps 768 mmHg 88%
    10:00 +4°C° 0 mm 2 mps 767 mmHg 84%
    11:00 +4°C° 0 mm 3 mps 767 mmHg 80%
    12:00 +5°C° 0 mm 4 mps 766 mmHg 76%
    13:00 +5°C° 0 mm 5 mps 765 mmHg 77%
    14:00 +4°C° 0 mm 6 mps 764 mmHg 77%
    15:00 +4°C° 0 mm 7 mps 763 mmHg 77%
    16:00 +4°C° 0.1 mm 8 mps 761 mmHg 79%
    17:00 +3°C° 0.1 mm 9 mps 760 mmHg 81%
    18:00 +5°C° 0.1 mm 10 mps 758 mmHg 82%
    19:00 +4°C° 1.7 mm 11 mps 757 mmHg 85%
    20:00 +4°C° 1.7 mm 11 mps 756 mmHg 88%
    21:00 +4°C° 1.7 mm 12 mps 755 mmHg 91%
    22:00 +2°C° 0.3 mm 11 mps 755 mmHg 86%
    23:00 +1°C° 0.3 mm 10 mps 755 mmHg 82%

    22 January, Tuesday

    Time Temperature Precipitation Wind Pressure Humidity
    00:00 0°C° 0.3 mm 8 mps 755 mmHg 78%
    01:00 0°C° 0.1 mm 9 mps 755 mmHg 78%
    02:00 0°C° 0.1 mm 9 mps 754 mmHg 78%
    03:00 0°C° 0.1 mm 9 mps 754 mmHg 78%
    04:00 -1°C° 0.1 mm 9 mps 754 mmHg 77%
    05:00 -1°C° 0.1 mm 8 mps 753 mmHg 76%
    06:00 -1°C° 0.1 mm 8 mps 753 mmHg 75%
    07:00 -1°C° 0.1 mm 8 mps 752 mmHg 76%
    08:00 -1°C° 0.1 mm 8 mps 752 mmHg 78%
    09:00 -1°C° 0.1 mm 8 mps 752 mmHg 79%
    10:00 0°C° 0.2 mm 8 mps 752 mmHg 76%
    11:00 0°C° 0.2 mm 9 mps 752 mmHg 73%
    12:00 0°C° 0.2 mm 10 mps 751 mmHg 70%
    13:00 0°C° 0.2 mm 9 mps 751 mmHg 71%
    14:00 0°C° 0.2 mm 9 mps 751 mmHg 72%
    15:00 0°C° 0.2 mm 9 mps 750 mmHg 73%
    16:00 -1°C° 0.2 mm 8 mps 750 mmHg 76%
    17:00 -1°C° 0.2 mm 7 mps 750 mmHg 79%
    18:00 -2°C° 0.2 mm 7 mps 750 mmHg 81%
    19:00 -2°C° 0.1 mm 6 mps 750 mmHg 82%
    20:00 -2°C° 0.1 mm 6 mps 750 mmHg 82%
    21:00 -2°C° 0.1 mm 6 mps 750 mmHg 82%
    22:00 -2°C° 0.1 mm 6 mps 749 mmHg 83%
    23:00 -2°C° 0.1 mm 6 mps 749 mmHg 83%

    23 January, Wednesday

    Time Temperature Precipitation Wind Pressure Humidity
    00:00 -1°C° 0.1 mm 5 mps 749 mmHg 84%
    01:00 -2°C° 0 mm 6 mps 749 mmHg 84%
    02:00 -2°C° 0 mm 6 mps 749 mmHg 84%
    03:00 -2°C° 0 mm 6 mps 749 mmHg 84%
    04:00 -2°C° 0 mm 6 mps 749 mmHg 85%
    05:00 -2°C° 0 mm 6 mps 749 mmHg 86%
    06:00 -2°C° 0 mm 6 mps 749 mmHg 87%
    07:00 -1°C° 0.3 mm 7 mps 749 mmHg 85%
    08:00 -1°C° 0.3 mm 8 mps 749 mmHg 84%
    09:00 0°C° 0.3 mm 9 mps 749 mmHg 83%
    10:00 0°C° 0.1 mm 8 mps 749 mmHg 82%
    11:00 +1°C° 0.1 mm 8 mps 749 mmHg 81%
    12:00 +2°C° 0.1 mm 7 mps 749 mmHg 80%
    13:00 +2°C° 0 mm 6 mps 750 mmHg 79%
    14:00 +2°C° 0 mm 6 mps 750 mmHg 78%
    15:00 +1°C° 0 mm 5 mps 750 mmHg 77%
    16:00 0°C° 0 mm 5 mps 751 mmHg 79%
    17:00 -1°C° 0 mm 4 mps 751 mmHg 80%
    18:00 -2°C° 0 mm 4 mps 752 mmHg 82%
    19:00 -1°C° 0 mm 3 mps 752 mmHg 82%
    20:00 -1°C° 0 mm 3 mps 751 mmHg 83%
    21:00 +1°C° 0 mm 2 mps 751 mmHg 83%
    22:00 0°C° 0.4 mm 3 mps 751 mmHg 85%
    23:00 +1°C° 0.4 mm 3 mps 751 mmHg 86%

    24 January, Thursday

    Time Temperature Precipitation Wind Pressure Humidity
    00:00 +2°C° 0.4 mm 3 mps 751 mmHg 88%
    01:00 +1°C° 1.9 mm 5 mps 752 mmHg 86%
    02:00 -1°C° 1.9 mm 7 mps 752 mmHg 84%
    03:00 -2°C° 1.9 mm 10 mps 753 mmHg 82%
    04:00 -3°C° 0 mm 9 mps 754 mmHg 83%
    05:00 -2°C° 0 mm 8 mps 755 mmHg 84%
    06:00 -3°C° 0 mm 7 mps 756 mmHg 86%
    07:00 -3°C° 0 mm 7 mps 757 mmHg 85%
    08:00 -3°C° 0 mm 7 mps 758 mmHg 85%
    09:00 -2°C° 0 mm 7 mps 759 mmHg 85%
    10:00 -2°C° 0 mm 7 mps 759 mmHg 86%
    11:00 -1°C° 0 mm 7 mps 759 mmHg 87%
    12:00 +1°C° 0 mm 6 mps 760 mmHg 88%
    13:00 +1°C° 0 mm 6 mps 760 mmHg 88%
    14:00 +1°C° 0 mm 6 mps 760 mmHg 88%
    15:00 +1°C° 0 mm 6 mps 760 mmHg 88%
    16:00 -1°C° 0 mm 6 mps 761 mmHg 88%
    17:00 -1°C° 0 mm 6 mps 761 mmHg 87%
    18:00 -2°C° 0 mm 6 mps 762 mmHg 87%
    19:00 -3°C° 0 mm 6 mps 762 mmHg 86%
    20:00 -3°C° 0 mm 6 mps 763 mmHg 85%
    21:00 -4°C° 0 mm 5 mps 763 mmHg 84%
    22:00 -4°C° 0 mm 5 mps 763 mmHg 85%
    23:00 -4°C° 0 mm 5 mps 764 mmHg 85%
    Show more